Regional Weather Roundup
Issued by NWS Newport/Morehead, NC

Current Version | Previous Version | Text Only | Print | Product List | Glossary On
Versions: 1 2 3 4 5 6 7 8 9 10 11 12 13 14 15 16 17 18 19 20 21 22 23 24 25 26 27 28 29 30 31 32 33 34 35 36 37 38 39 40 41 42 43 44 45 46 47 48 49 50
000 ASUS42 KMHX 220013 RWRMHX WEATHER ROUNDUP FOR EASTERN NORTH CAROLINA NATIONAL WEATHER SERVICE NEWPORT/MOREHEAD CITY NC 800 PM EDT WED JUN 21 2017 NOTE: "FAIR" INDICATES FEW OR NO CLOUDS BELOW 12,000 FEET WITH NO SIGNIFICANT WEATHER AND/OR OBSTRUCTIONS TO VISIBILITY NCZ015>017-031-032-045>047-102-103-220100- NORTH COAST CITY SKY/WX TMP DP RH WIND PRES REMARKS EDENTON CLOUDY 82 74 78 CALM 30.05R ELIZABETH CITY PTCLDY 78 74 87 S5 30.04R KITTY HAWK CLOUDY 79 71 77 CALM 30.04R MANTEO CLOUDY 79 73 80 SW16 30.05S $$ NCZ045>047-081-094-103-104-220100- CENTRAL COAST CITY SKY/WX TMP DP RH WIND PRES REMARKS FRISCO CLOUDY 78 70 76 SW13 30.08R $$ NCZ095-097-098-100-101-220100- SOUTHERN COAST CITY SKY/WX TMP DP RH WIND PRES REMARKS BEAUFORT CLOUDY 78 73 84 S10 30.09R CEDAR ISLAND NOT AVBL JACKSONVILLE CLOUDY 77 72 84 S9 30.08R PINEY ISLAND CLEAR N/A N/A N/A S10 30.08R WILMINGTON CLOUDY 78 73 84 S7 30.10R $$ NCZ011>013-027>030-043-044-078>080-089-090>093-098-220100- COASTAL PLAIN CITY SKY/WX TMP DP RH WIND PRES REMARKS AHOSKIE N/A 76 73 91 CALM 30.04S CLINTON CLEAR 81 74 81 S3 30.07S ELIZABETHTOWN NOT AVBL GOLDSBORO NOT AVBL GREENVILLE MOCLDY 79 73 83 CALM 30.08R HAVELOCK PTCLDY 78 70 76 SW8 30.09R KENANSVILLE CLEAR 81 73 78 CALM 30.07S KINSTON CLOUDY 81 73 78 S6 30.07R NEW BERN CLOUDY 78 72 81 S8 30.09R RICHLANDS MOCLDY 78 72 81 S13 30.09R ROCKY MOUNT PTCLDY 77 73 87 S6 30.05R WASHINGTON CLOUDY 80 70 71 W6 30.06R WHITEVILLE MOCLDY 79 72 80 S7 30.09R $$ AMZ130-135-150-152-154-156-158-170-250-252-270-ANZ085-086-088-633-658-670-220100- MARINE OBSERVATIONS STATION/POSITION TIME TEMP WIND PRES WAVE SWELL AIR SEA DIR/SP/G HT/PER HT/PER (UTC) (F) (DEG/KT/KT) (MB) (FT/S) (FT/S) CHESAPEAKE LIGHT NOT AVBL 64 E VA BEACH 2350 72 71 220/ 10/ 12 1017.6 3/13 2/13 DUCK 2348 79 65 230/ 8/ 11 1017.2 2 E DUCK NOT AVBL OREGON INLET 2348 200/ 18/ 21 1017.7 13E OREGON INLT 2348 74 N/A 3/13 2/13 HATTERAS CG 2348 77 79 210/ 11/ 15 1018.2 DIAMOND BUOY 2350 79 79 200/ 16/ 17 1018.4 3/ 7 2/ 7 CAPE LOOKOUT 0000 77 190/ 11/ 13 1018.7 BEAUFORT LAB 2348 78 77 200/ 8/ 10 1018.3 30 SE NEW RVR IN 2308 78 80 180/ 10/ 12 1018.8 30 SE NEW RVR IN 2343 80 N/A 3/ 7 2/14 27 SE WRIGHTSVLE 2308 77 80 180/ 10/ 16 1018.7 5 SE WRIGHTSVLE 2308 78 78 170/ 8/ 12 1018.8 225 S CAPE HAT 2350 81 82 190/ 10/ 12 1020.6 4/ 8 3/ 8 41 SE CHARLESTON 2350 81 81 170/ 6/ 8 1018.4 4/ 7 3/ 7 $$

USA.gov is the U.S. government's official web portal to all federal, state and local government web resources and services.